Theta_e
344 343 342 341 341 340 340 341 343 345 347 346 346 345 344 345 346 347 345 341 339 338 337 338 335 332 332 332 332 332 333 332 330 330 330 331 339 348 349 348 349 349 348 349 349 348 348 348 349 350 348 341 334 334 333 332 328 326 324 323 322 321 321 321 320 320 320 319 319 319 320 321 322 324
345 344 341 339 340 340 340 341 343 346 347 346 346 345 345 345 344 346 346 342 338 337 339 341 339 335 333 331 332 333 332 331 330 330 329 329 335 344 349 349 349 349 348 349 349 347 346 347 349 350 343 334 332 333 333 331 329 326 323 322 322 322 321 322 321 320 320 319 318 319 319 320 321 322
345 345 343 340 340 340 341 341 344 346 346 346 346 345 344 345 344 343 344 343 340 337 338 341 340 337 335 333 333 333 332 330 329 329 329 327 331 341 347 347 347 347 347 348 347 344 346 348 349 346 337 331 332 333 332 331 327 324 322 322 322 322 322 322 321 320 320 319 319 318 318 319 320 322
344 345 344 342 340 340 340 342 343 345 346 345 345 345 344 343 344 343 342 342 338 337 337 338 337 338 336 334 334 333 331 329 329 328 328 327 330 338 345 344 343 343 344 345 344 344 346 349 348 343 334 330 331 331 330 328 325 323 323 322 322 323 323 322 321 321 320 318 318 319 318 320 321 322
343 343 344 343 342 340 340 341 343 344 345 344 344 344 343 343 343 342 340 339 336 336 337 336 335 336 335 334 333 332 330 328 328 328 327 328 329 334 342 343 341 340 342 342 344 346 348 349 347 340 333 330 330 329 327 326 324 323 323 322 323 323 322 322 321 320 320 319 319 319 318 320 322 322
342 341 342 343 343 342 341 341 342 342 342 342 342 342 342 342 341 340 340 339 338 336 337 336 334 333 333 333 332 331 330 328 327 327 327 329 330 331 337 343 342 339 341 343 346 348 349 348 347 340 333 331 330 328 326 324 323 322 322 323 323 323 322 321 321 320 319 319 318 318 319 320 323 324
340 340 340 341 342 343 342 341 341 342 341 341 341 340 340 340 340 340 340 340 340 338 337 336 334 333 332 332 332 330 329 328 327 327 327 329 332 331 335 342 343 339 341 345 347 348 348 347 346 341 334 330 330 328 325 323 323 322 323 323 322 323 323 321 322 321 320 319 319 318 318 320 324 325
339 339 339 339 339 340 341 341 341 341 341 341 341 340 340 340 340 341 340 340 339 337 336 336 334 333 332 331 332 330 329 329 328 327 326 328 332 333 337 344 346 341 343 347 347 347 346 346 345 341 334 331 330 328 325 323 323 322 322 323 323 323 322 322 321 321 320 319 319 318 318 320 325 327
336 338 338 338 339 339 339 339 339 340 340 341 341 341 340 340 340 340 339 337 335 335 335 335 334 332 330 330 332 332 329 329 329 328 326 327 330 334 338 345 348 346 344 347 345 343 343 345 346 342 336 333 330 328 325 323 322 323 323 323 323 323 323 322 321 321 319 319 319 318 318 319 325 329
334 336 337 337 337 337 338 337 337 337 337 338 339 340 339 339 340 339 337 335 334 333 334 334 333 331 330 329 331 332 330 329 329 328 328 327 329 333 337 343 348 348 346 346 343 340 341 344 345 343 339 335 331 328 325 323 322 322 322 323 324 323 323 322 321 320 319 319 318 318 318 318 324 329
331 334 337 337 337 337 336 336 336 336 336 336 336 337 337 337 337 337 336 335 334 333 332 331 331 330 330 329 330 331 331 329 329 329 330 330 330 333 335 340 345 347 345 345 344 342 341 342 344 344 341 338 333 329 326 323 322 323 323 323 323 323 323 322 321 320 319 318 318 318 318 318 322 328
329 331 334 336 337 337 336 336 336 336 336 335 335 335 335 336 336 336 336 336 335 334 332 331 330 329 329 329 329 330 330 330 332 333 333 332 332 333 335 338 343 345 345 345 345 344 342 341 343 344 343 340 336 330 326 324 322 323 323 323 324 323 323 322 321 320 319 318 318 318 318 318 321 326
330 329 331 333 335 336 336 336 336 336 336 336 336 335 335 335 336 336 337 337 336 335 333 331 331 330 330 329 329 330 331 332 335 336 336 337 334 332 334 337 339 343 345 345 345 344 342 341 342 344 344 342 339 332 327 324 323 323 323 323 323 323 323 322 321 320 319 318 318 318 318 317 319 324
330 329 329 330 331 333 334 335 335 334 335 335 335 335 335 335 335 336 336 336 335 334 333 332 331 330 330 329 329 330 332 335 338 339 340 341 339 337 339 341 340 338 342 344 344 341 341 341 342 343 344 344 341 335 328 324 323 323 323 323 324 323 323 322 321 320 319 318 318 317 317 317 317 321
330 329 328 329 330 331 331 333 333 334 334 334 334 334 335 335 335 335 335 335 334 333 332 331 331 331 329 329 329 331 334 339 341 342 343 344 345 345 344 346 345 340 338 341 343 341 340 341 342 342 344 344 343 337 329 324 323 323 323 323 323 323 323 322 321 320 318 318 318 318 318 317 317 318
331 330 329 329 330 330 331 331 332 332 333 333 333 333 334 334 334 334 334 334 334 333 332 331 331 330 330 329 329 332 338 343 344 344 343 343 345 345 344 343 345 342 336 337 343 345 342 342 344 343 343 345 344 339 330 324 323 323 323 323 324 323 322 321 320 319 319 318 318 318 318 317 317 317
332 331 329 329 330 330 330 330 331 332 333 333 333 333 333 333 333 333 333 333 333 334 333 332 330 329 329 329 329 333 340 345 345 345 344 343 343 343 341 340 341 340 336 336 344 349 346 343 345 344 343 344 345 341 332 324 322 323 323 323 324 323 322 321 320 319 318 318 318 318 318 318 317 317
334 332 331 329 329 329 331 331 331 332 333 333 334 333 333 333 332 332 332 332 333 333 333 332 330 328 328 328 329 334 341 345 347 347 346 345 345 343 341 339 338 337 336 337 343 349 349 346 345 345 344 344 345 342 333 324 322 322 322 323 324 323 322 320 319 318 318 318 318 318 318 318 317 317
336 335 332 330 330 330 331 331 331 332 333 334 334 334 334 333 333 332 331 331 332 332 333 333 332 330 329 329 330 334 340 344 347 347 347 347 345 343 341 339 338 338 338 336 338 345 350 348 347 346 344 344 345 343 333 324 322 322 323 323 324 323 322 320 319 318 318 318 318 318 318 318 318 317
337 335 334 332 331 331 331 331 331 332 333 334 335 334 334 334 333 332 331 331 332 332 332 333 333 333 332 331 332 334 338 342 344 345 347 347 345 344 341 339 340 342 342 338 335 343 350 349 348 348 345 345 346 342 333 325 322 322 322 323 323 322 321 320 319 318 318 318 318 318 318 318 318 317
336 336 334 333 331 331 331 331 331 332 333 333 334 333 334 333 333 332 331 330 331 331 332 332 333 333 333 333 333 334 335 338 339 342 344 344 343 343 341 339 341 344 345 341 337 342 348 347 347 348 346 345 347 342 332 324 322 323 323 323 323 322 321 320 320 319 319 318 318 319 318 318 318 318
337 336 334 333 332 332 332 331 332 332 333 333 333 333 333 332 332 332 331 330 330 330 332 333 333 333 333 334 334 334 335 336 337 338 338 340 341 342 341 340 343 346 347 343 338 340 345 348 348 348 346 346 347 343 333 325 322 323 323 323 322 321 321 321 320 320 320 319 319 319 319 319 319 318
338 337 335 333 333 333 332 332 332 333 333 333 333 333 332 332 331 330 330 329 330 330 331 332 333 333 334 334 334 335 335 336 336 335 335 337 341 342 341 341 345 350 349 343 338 342 347 350 350 348 347 347 346 343 334 325 322 323 323 323 322 321 321 321 320 320 320 320 320 320 319 319 319 318
339 338 336 334 333 332 332 332 332 333 333 332 332 333 333 331 329 329 329 329 330 331 332 332 333 334 334 334 334 334 336 337 337 337 338 341 343 344 343 343 347 351 351 345 339 342 347 349 348 348 348 347 345 343 335 326 322 323 323 322 322 321 321 321 321 321 321 320 320 320 320 320 319 319
339 338 336 334 333 332 332 332 332 333 334 332 333 334 332 330 329 329 330 330 331 332 333 333 334 334 334 334 334 334 335 337 339 342 343 345 345 345 344 344 346 350 350 346 342 343 346 349 349 348 349 348 346 342 334 326 323 323 323 323 322 321 321 321 320 321 320 320 320 320 319 319 319 319
339 339 336 334 333 332 332 331 332 333 335 336 335 334 331 331 331 333 334 335 334 334 334 336 337 337 335 333 333 333 333 335 338 341 343 345 347 346 345 344 345 346 347 347 346 347 347 349 349 349 349 348 347 340 331 325 323 323 323 323 322 322 321 321 321 320 320 320 320 320 319 319 319 319
339 339 338 335 334 333 332 332 331 332 336 338 338 336 336 338 340 342 343 342 339 339 340 342 342 342 339 336 334 333 333 334 337 339 341 344 346 346 344 342 342 343 346 349 350 350 350 350 349 349 348 347 345 338 329 325 324 323 323 323 322 322 321 321 321 321 320 320 320 320 320 319 319 318
341 340 339 337 336 336 333 331 332 334 336 338 339 340 342 344 346 349 349 347 345 345 346 347 347 345 342 339 339 337 336 338 341 342 342 343 344 344 344 344 344 345 348 350 350 351 352 351 351 349 348 347 343 336 328 325 324 323 324 323 322 322 322 322 321 321 321 321 321 320 320 319 319 318
344 342 341 340 339 338 336 335 336 338 338 339 340 342 345 347 350 351 351 351 350 349 350 350 349 348 346 345 345 344 343 345 346 345 345 344 344 345 346 347 346 347 348 350 351 352 352 353 351 349 348 346 341 334 328 325 324 324 324 323 323 322 322 322 322 322 322 322 321 321 320 320 319 318
349 346 345 343 342 341 341 341 342 343 343 343 344 345 347 348 350 351 352 352 352 352 351 350 350 350 350 349 349 348 347 348 348 347 347 346 346 347 348 348 348 349 349 350 352 353 352 352 351 349 347 344 339 333 328 324 324 325 324 324 324 323 322 323 322 323 322 322 322 322 321 321 320 319
354 351 348 345 345 344 344 344 345 347 348 349 349 349 349 348 349 350 352 353 353 353 353 351 350 351 351 351 351 350 350 350 349 349 349 348 348 349 351 351 351 351 350 350 351 352 351 350 349 348 346 342 337 332 327 325 325 325 325 324 324 324 323 323 323 323 322 322 322 322 322 321 321 320
357 354 351 349 348 348 348 348 348 349 350 351 351 350 350 349 349 349 351 352 352 353 352 352 351 352 351 351 351 352 351 352 352 352 352 351 350 350 352 353 353 352 351 351 352 352 350 349 349 347 344 339 334 331 327 325 325 325 325 325 324 324 324 324 324 323 323 323 322 322 322 322 321 321
359 357 355 353 351 351 351 351 351 351 351 351 352 351 351 351 350 351 351 350 350 350 351 351 352 352 351 350 351 351 352 354 355 355 354 352 351 352 353 353 352 352 352 353 353 352 350 348 348 346 342 336 332 329 327 326 325 325 325 325 325 325 324 324 324 324 323 323 323 323 323 322 322 321
359 358 357 356 354 353 353 352 352 352 352 352 351 351 351 351 351 351 350 349 348 348 348 350 351 351 351 350 351 351 353 354 355 356 355 353 352 352 353 354 353 352 353 353 353 352 350 348 348 344 339 335 331 329 328 327 326 325 325 325 325 325 325 324 324 324 324 324 323 323 323 323 323 322
359 358 358 357 356 355 355 354 353 353 354 354 352 351 351 350 351 351 351 349 348 347 348 350 350 350 350 351 351 351 352 354 355 355 355 352 350 350 352 354 353 353 353 354 354 353 350 349 347 342 337 334 331 329 329 328 327 326 326 326 325 325 325 325 324 324 324 324 324 323 324 323 323 323
359 359 358 358 357 357 356 356 355 354 355 355 353 352 352 351 351 350 349 349 348 349 349 350 349 349 350 351 351 351 352 354 355 354 353 352 350 350 350 351 352 353 353 352 352 352 351 350 347 341 336 334 332 330 331 331 329 326 326 326 325 326 326 325 325 325 325 325 324 324 324 324 323 323
359 359 359 359 358 357 357 356 356 356 355 355 355 354 354 353 352 350 349 349 350 350 350 349 348 349 349 349 350 352 354 354 353 353 352 352 352 353 351 351 352 353 353 350 350 351 350 349 346 343 339 336 333 331 332 332 329 327 326 326 325 326 326 325 325 325 325 325 325 324 324 324 323 323
360 359 360 359 359 358 358 357 357 356 356 356 356 355 354 354 353 352 350 349 349 349 347 345 346 348 349 349 351 354 354 354 353 353 353 353 353 353 352 352 352 352 351 348 348 350 349 346 344 343 341 338 335 333 333 332 329 326 325 326 326 326 326 326 326 326 325 325 325 325 324 324 324 323
361 360 360 360 360 359 359 358 357 357 357 356 356 356 355 355 354 353 351 348 345 345 343 343 346 349 350 351 353 355 354 354 353 353 353 353 353 352 352 352 352 352 350 346 346 349 349 344 342 343 342 338 336 334 333 333 333 329 326 326 327 326 326 326 326 326 326 326 325 325 324 324 324 324
362 362 361 361 361 361 361 360 358 357 357 357 357 356 356 355 354 354 352 349 346 344 342 342 346 350 351 352 354 355 356 355 353 353 353 352 352 353 353 353 352 351 347 343 343 348 348 343 342 344 341 337 334 333 331 332 331 329 326 327 327 326 327 327 326 326 326 326 325 325 325 324 325 324
362 362 362 362 362 362 362 361 360 359 358 357 357 357 357 357 356 355 354 353 352 349 348 347 349 352 353 354 355 355 356 356 355 353 353 352 352 353 353 353 352 350 347 343 344 347 347 344 344 343 338 333 332 331 329 330 330 328 327 327 327 327 327 327 327 326 326 326 325 325 325 324 324 324
362 362 362 362 362 363 362 362 361 361 359 358 358 357 357 357 357 356 356 356 355 354 352 351 352 353 354 355 356 356 357 356 355 354 353 351 351 351 352 351 350 350 350 348 347 348 346 344 343 341 337 333 331 330 330 331 331 329 329 328 327 327 327 327 327 327 326 326 325 325 324 325 324 324
361 361 362 361 362 362 362 362 362 361 360 359 359 359 358 358 357 357 357 356 356 355 355 354 354 354 355 355 356 357 357 356 355 353 352 351 350 350 350 350 349 351 351 350 349 347 344 341 339 338 335 332 329 328 330 330 329 328 330 329 328 327 327 327 327 327 326 326 326 325 324 325 324 324
361 361 361 360 361 361 362 362 362 362 360 359 359 359 359 358 358 357 358 357 357 356 355 355 355 355 356 356 357 356 356 355 353 352 352 352 351 350 350 350 350 351 351 350 348 346 342 339 337 335 332 330 328 328 329 328 328 330 330 330 328 328 328 327 327 327 326 326 326 325 325 324 324 323
362 362 361 362 361 362 362 363 363 363 362 360 359 360 360 359 358 359 358 358 358 357 357 356 356 357 357 357 357 356 355 354 352 352 353 353 351 350 350 351 351 351 351 349 346 343 339 336 334 332 330 329 329 329 328 328 329 330 330 329 328 328 327 327 326 326 325 325 325 324 324 324 323 321
Wind_Speed
6 7 7 7 7 7 6 6 6 5 4 2 1 2 4 5 6 8 9 8 7 8 8 7 7 8 8 9 10 12 15 16 16 17 18 18 16 12 11 12 13 15 17 19 20 21 22 23 23 23 24 24 24 23 21 21 23 25 27 28 27 28 29 30 30 29 28 27 26 25 22 19 16 15
6 7 7 7 7 7 7 8 7 6 5 4 3 3 4 5 6 8 9 9 7 7 8 8 8 8 7 8 9 11 14 15 15 16 18 18 16 13 12 13 14 16 19 20 22 23 23 23 23 24 24 24 24 23 22 22 24 27 28 28 29 30 31 32 31 31 30 28 27 27 25 23 20 16
7 7 7 7 7 8 8 9 9 8 7 7 6 6 6 6 7 8 10 10 9 8 7 7 8 8 8 8 9 10 12 14 14 15 17 18 16 13 12 14 15 17 19 21 23 24 23 22 22 23 24 24 24 23 23 24 26 28 28 28 29 30 32 33 33 32 31 30 28 28 27 25 21 18
8 8 7 7 8 9 9 10 10 10 10 10 9 9 8 8 8 9 11 12 11 9 7 7 8 9 9 9 9 10 11 12 13 14 16 17 15 13 13 15 17 18 20 22 23 23 22 21 21 23 24 24 25 24 24 25 27 27 27 28 29 30 32 32 33 33 32 31 30 29 28 26 22 18
10 9 8 8 9 10 11 12 12 12 12 13 12 12 11 11 11 11 12 13 13 10 8 8 8 8 9 9 10 11 11 12 13 14 15 15 15 13 12 15 17 18 20 22 22 21 20 20 21 23 24 25 25 25 25 26 26 26 26 27 28 30 31 31 33 34 33 32 32 31 30 27 23 19
12 11 10 10 10 11 12 13 14 15 15 15 16 15 14 13 13 12 12 13 14 13 11 10 8 7 8 9 10 11 11 12 14 15 15 14 14 14 13 13 17 19 20 21 21 20 19 20 21 22 24 24 24 25 25 25 25 25 25 26 27 29 30 31 32 33 34 33 33 32 31 28 24 19
14 13 13 12 11 12 14 14 15 16 16 16 17 17 15 14 14 13 13 13 14 15 15 13 11 9 8 9 9 10 11 12 14 16 16 15 13 14 13 12 16 19 20 20 19 18 19 20 21 22 23 24 24 24 25 25 24 24 24 25 27 28 29 31 32 32 33 33 33 33 31 29 25 19
15 15 15 14 14 14 15 15 16 16 16 15 15 15 15 14 14 14 13 14 15 16 16 15 13 11 10 9 9 10 11 11 13 15 16 15 14 14 13 12 15 18 19 18 18 18 19 20 20 21 22 23 24 24 24 24 23 23 23 24 26 28 29 31 31 31 32 32 32 32 31 30 26 19
17 17 16 16 15 16 17 17 17 16 16 16 15 15 15 14 14 14 14 14 15 16 17 17 15 13 12 11 10 10 11 12 13 14 15 15 14 14 12 11 13 17 18 18 18 19 20 21 20 20 21 22 23 23 23 23 22 22 23 24 26 28 29 30 30 30 31 31 31 31 31 30 27 20
18 18 18 17 17 17 18 18 17 17 17 17 16 16 15 14 14 14 15 15 15 16 17 18 17 16 14 13 11 10 11 13 14 15 15 14 14 13 12 11 11 15 18 18 19 20 21 21 20 20 20 21 22 22 22 22 22 22 23 24 26 28 29 29 29 29 29 30 30 30 30 30 28 21
19 20 19 19 18 18 19 18 18 18 18 18 18 17 16 15 15 15 16 16 16 17 18 18 19 18 16 15 13 12 12 13 14 16 16 16 15 13 12 12 12 14 17 17 18 20 20 20 20 19 19 20 21 21 21 21 21 21 22 24 26 28 28 27 27 27 28 28 29 29 30 30 28 22
21 22 22 21 20 19 19 19 19 18 19 19 19 18 17 17 17 17 17 17 17 18 19 19 19 19 18 17 16 15 14 13 13 14 15 16 16 15 13 13 13 15 17 17 18 20 21 20 19 19 19 20 21 21 20 20 20 20 21 23 25 27 27 26 25 25 26 27 28 29 29 29 27 23
23 23 24 24 23 21 20 20 20 20 19 19 19 19 19 18 18 18 18 19 19 19 19 20 19 19 20 19 18 17 15 14 13 14 15 15 15 16 15 14 13 14 16 17 18 20 21 20 20 19 19 19 20 21 20 19 19 20 21 23 25 27 27 26 24 24 24 26 27 28 28 28 27 24
25 25 25 26 25 24 23 22 21 21 20 20 20 20 20 20 20 20 20 20 20 19 20 20 20 20 21 21 20 19 17 14 13 14 15 15 15 16 16 14 14 14 15 16 18 20 19 19 19 18 19 19 20 21 20 19 19 20 21 23 25 26 26 25 23 23 23 24 25 26 27 27 26 24
26 26 26 26 26 26 25 25 24 23 22 21 21 21 20 21 21 21 22 21 20 20 20 21 21 22 22 22 20 20 18 15 13 14 14 14 15 16 16 14 14 15 15 16 18 19 18 18 18 18 18 19 19 20 20 20 19 19 21 23 24 26 26 24 23 22 22 23 24 26 26 26 26 24
27 27 27 27 27 27 27 26 26 25 24 23 22 22 21 22 22 23 23 22 21 21 22 23 23 23 23 23 21 20 18 17 15 15 15 16 15 16 17 16 16 16 17 17 18 18 18 17 17 18 17 17 18 19 20 19 19 19 21 22 24 25 25 24 22 21 21 22 23 25 25 26 25 24
28 28 28 28 28 28 27 27 27 26 26 25 24 24 23 24 24 24 24 23 23 23 23 24 24 23 23 23 22 20 19 18 18 17 17 17 17 18 19 18 18 18 19 18 16 16 17 17 17 17 17 16 17 19 19 19 19 19 20 22 23 24 24 23 22 21 20 21 22 23 25 25 25 24
29 29 29 29 29 29 28 28 27 26 26 26 25 25 25 25 25 25 25 25 24 23 24 25 25 24 23 23 22 21 21 20 19 18 17 18 18 19 19 19 20 20 19 18 16 15 16 17 16 17 17 16 16 18 18 18 18 19 20 21 22 23 23 22 21 20 19 19 20 22 24 25 25 24
30 30 30 30 30 30 30 29 28 27 26 26 26 26 27 27 27 26 26 26 25 24 24 25 26 25 25 24 24 23 23 23 21 19 18 18 19 20 21 21 21 19 18 18 17 16 16 16 16 16 16 15 15 17 17 16 17 17 19 21 21 22 21 20 20 19 18 18 19 20 22 24 25 25
31 31 31 31 31 31 31 30 29 27 26 26 27 27 28 28 28 28 28 27 26 25 25 26 26 26 25 25 25 24 25 25 24 23 22 21 22 22 23 22 20 18 17 18 18 15 14 16 16 15 15 15 14 15 16 15 15 16 18 20 20 20 20 19 19 18 18 17 18 19 20 21 23 24
32 32 32 32 32 32 32 31 29 28 27 28 28 28 29 29 30 30 29 28 27 27 26 27 27 26 26 25 25 25 25 25 25 25 25 24 24 23 22 21 20 18 16 18 18 15 15 16 15 15 15 14 13 14 14 14 13 15 17 18 19 19 19 18 18 18 17 17 17 18 19 20 21 22
33 33 33 32 32 33 33 31 30 28 28 29 29 29 29 30 31 32 31 30 29 28 27 28 27 26 25 25 24 25 25 24 25 26 26 25 24 23 22 21 19 17 16 17 17 16 16 16 14 14 15 14 13 13 13 12 12 14 15 17 17 18 18 18 18 18 17 17 17 17 18 19 20 21
33 33 33 33 34 34 33 31 30 29 29 30 30 30 29 31 33 33 31 31 30 29 28 28 27 26 25 24 23 24 24 23 24 25 25 24 22 22 22 20 18 16 16 18 18 16 16 15 14 14 14 14 13 13 12 11 12 12 13 15 15 15 16 17 17 17 17 17 17 17 18 18 19 20
34 34 34 34 35 34 34 32 31 31 30 31 31 30 31 33 35 33 32 31 30 29 29 28 27 26 24 24 23 23 23 23 24 24 24 23 22 22 22 21 19 17 17 19 18 16 16 16 16 16 15 13 12 13 12 11 11 11 12 13 13 13 14 15 16 17 17 17 18 18 19 19 19 18
35 35 35 35 35 34 33 33 32 32 31 31 31 31 32 33 33 32 31 31 30 29 29 29 27 26 25 25 24 24 25 25 24 24 23 23 23 23 23 23 22 21 20 20 18 16 17 17 16 17 16 14 13 14 13 11 10 10 10 11 11 12 12 13 14 15 16 16 17 18 19 19 19 19
36 36 36 35 34 33 33 33 32 32 31 30 31 32 32 31 30 29 29 28 29 29 29 28 26 25 25 26 26 26 27 27 26 25 25 24 24 24 24 24 24 24 23 21 18 17 17 17 16 17 16 14 13 14 13 11 11 10 9 9 10 11 12 12 12 13 14 15 16 17 17 18 19 19
37 37 36 35 32 31 32 32 32 32 31 29 29 30 29 27 25 24 23 25 26 27 27 26 25 24 25 26 27 28 28 28 27 26 26 24 24 26 27 27 27 24 22 21 21 19 19 18 17 17 16 13 13 14 12 11 11 10 9 8 9 10 11 11 12 12 13 14 15 16 17 17 17 18
37 37 36 34 30 30 32 33 33 31 30 29 28 27 24 22 21 21 21 22 24 24 24 25 25 25 25 26 27 28 28 27 26 26 26 26 26 28 29 29 28 25 23 24 24 22 20 20 19 18 16 15 14 14 12 12 12 10 8 8 8 9 10 10 11 11 13 14 15 16 17 18 18 18
36 36 35 32 30 30 31 32 32 31 30 30 28 26 23 22 23 23 23 22 23 24 25 25 25 25 25 25 26 26 26 26 25 26 27 28 28 29 29 30 29 28 27 26 25 23 23 23 22 19 17 16 15 14 13 13 12 10 8 7 7 8 8 9 10 11 12 13 15 16 17 18 19 19
33 33 32 31 30 30 31 31 31 31 30 29 27 26 25 26 26 26 25 24 24 25 25 27 27 27 26 25 26 26 26 26 26 27 27 28 29 29 29 30 31 29 27 26 26 25 25 24 23 21 19 17 16 15 14 14 13 11 9 8 7 8 8 8 8 10 11 12 13 14 16 17 18 18
30 30 30 30 31 31 31 31 32 31 30 29 29 29 29 29 29 29 27 26 26 26 27 28 29 29 27 26 27 27 27 28 27 27 27 28 29 28 27 29 30 28 26 26 26 25 24 24 23 22 20 18 17 16 15 14 13 11 10 9 8 8 8 8 8 8 9 11 12 13 14 15 16 17
27 28 29 30 32 32 33 33 33 34 33 32 31 31 31 31 30 30 29 29 29 29 29 30 30 30 29 28 27 28 28 28 27 26 27 29 28 26 26 28 29 28 27 26 25 25 25 24 24 22 21 19 17 16 15 14 13 12 11 9 9 8 8 8 7 7 8 9 10 12 13 14 14 15
26 27 29 31 34 35 36 35 36 36 36 35 33 32 32 32 31 31 31 32 33 32 31 31 31 30 30 29 29 29 29 28 27 27 27 28 28 28 29 30 30 30 29 28 27 27 26 25 25 23 21 19 18 17 16 15 14 13 11 10 9 8 8 8 7 7 8 8 9 11 13 13 14 14
27 29 31 33 35 37 38 38 38 38 37 36 35 34 34 34 33 33 33 34 34 34 33 33 32 30 31 31 30 29 30 30 29 28 28 27 28 30 32 33 33 32 31 30 29 28 26 26 26 24 22 20 20 19 18 16 15 14 13 11 10 8 9 9 9 8 8 9 9 10 11 13 14 14
27 30 32 34 36 38 40 40 39 38 37 38 36 35 35 35 35 35 34 34 35 34 33 32 31 31 32 32 31 31 32 32 32 32 31 30 30 31 32 33 33 34 33 32 32 31 28 27 26 25 23 22 21 21 19 18 17 16 14 12 10 9 9 10 10 10 9 10 10 10 10 11 13 14
27 29 31 33 35 38 40 41 40 38 38 38 37 35 35 36 36 36 35 33 33 33 32 32 31 31 32 33 33 32 32 33 35 36 35 34 33 32 32 32 32 34 35 34 34 33 30 27 26 26 25 24 23 23 22 20 18 17 15 14 12 10 10 11 11 12 12 11 12 12 11 11 12 14
28 29 31 32 34 35 37 38 39 38 37 38 38 36 36 36 37 36 33 32 32 32 32 31 31 31 32 33 33 32 32 33 35 36 36 36 35 35 33 32 31 33 34 35 36 35 31 29 28 27 26 27 26 24 22 20 19 17 16 15 13 11 11 11 12 13 14 13 13 14 13 13 14 15
30 30 31 32 32 33 34 35 36 36 37 37 37 37 36 35 35 34 33 32 33 33 32 31 31 31 31 32 31 31 32 34 34 35 35 34 34 36 35 33 31 32 34 37 39 36 32 31 30 27 26 27 27 24 20 18 19 18 16 15 14 13 11 11 12 14 15 15 15 15 15 15 15 16
32 31 32 33 33 32 32 32 33 33 34 35 36 37 36 35 34 33 33 33 34 33 33 32 31 30 29 30 30 31 32 33 33 33 34 33 34 36 34 31 31 33 34 36 37 36 33 32 30 27 27 28 27 24 19 16 16 16 14 14 15 13 11 11 13 14 16 16 17 17 17 17 18 18
33 34 34 35 35 34 32 31 31 31 32 34 36 36 35 34 33 33 33 33 34 34 34 33 30 29 30 30 30 30 31 32 32 33 34 34 35 36 34 31 29 29 29 31 35 35 33 32 29 26 26 26 24 22 20 18 18 16 15 15 15 13 12 13 14 15 16 17 17 19 19 20 20 20
35 36 36 36 35 35 33 32 30 30 32 34 35 35 35 35 34 33 33 34 34 34 34 33 31 30 31 31 30 30 31 31 32 33 34 33 34 35 34 30 28 28 28 33 38 38 35 32 28 23 22 23 22 22 22 22 21 19 17 17 15 13 14 15 15 16 17 18 18 20 21 22 23 23
36 36 36 36 35 35 34 33 31 31 32 34 34 35 35 35 34 33 34 35 36 35 35 34 32 31 31 31 31 31 32 31 32 33 33 32 33 34 33 30 28 27 27 31 36 36 33 29 24 20 21 23 23 24 24 23 21 18 17 16 15 14 15 17 17 17 18 18 19 21 21 22 22 22
37 37 37 36 35 35 35 34 32 31 32 33 34 34 34 34 34 34 36 37 37 36 35 33 32 31 30 30 31 32 32 32 31 31 30 31 33 35 34 29 27 26 26 27 30 30 28 24 21 20 22 24 25 25 25 24 22 19 17 16 16 17 17 18 18 18 19 19 21 22 22 22 22 22
38 39 38 36 35 35 35 35 33 32 33 33 33 33 34 34 35 36 38 38 37 36 34 32 32 31 30 29 30 32 32 32 30 29 28 28 31 34 33 29 26 26 26 26 26 27 26 24 22 21 22 23 24 24 25 25 23 19 17 17 19 19 19 19 19 19 20 21 22 23 24 24 25 24
35 38 40 39 38 37 36 36 36 36 35 35 35 34 34 35 36 38 38 38 37 35 33 32 32 32 30 29 30 32 32 31 29 26 25 25 27 30 29 24 23 26 27 26 26 27 25 23 21 20 21 23 24 23 23 24 22 19 18 20 21 20 19 20 19 20 21 23 23 23 24 24 24 24
Wind_Direction
229 231 232 231 234 237 231 228 231 231 238 255 306 331 336 349 356 358 2 12 19 9 3 353 341 338 337 337 335 333 336 339 341 341 342 343 345 341 332 326 325 324 324 326 328 331 333 337 341 344 347 349 352 355 355 354 353 352 351 351 352 354 354 354 355 356 357 355 352 351 350 346 336 319
239 238 231 228 228 227 224 227 234 239 245 254 269 292 308 324 341 345 344 348 359 360 356 348 335 330 329 328 327 331 335 337 338 339 339 339 340 336 325 320 318 318 320 323 325 328 332 337 341 345 349 352 356 357 356 353 352 352 353 353 353 353 352 352 352 354 355 355 352 350 349 348 345 336
242 245 239 230 225 224 225 230 238 248 255 260 268 280 292 307 321 331 332 330 336 348 351 343 330 323 320 319 319 326 332 333 336 337 334 334 335 330 320 315 314 315 317 319 321 326 332 336 341 346 350 355 358 357 355 352 352 354 354 352 351 351 350 349 350 352 354 353 351 349 348 347 345 343
238 242 244 238 230 229 231 235 243 253 262 268 273 278 285 296 308 319 321 319 323 334 341 336 327 315 311 311 310 315 325 330 333 334 332 331 331 326 317 313 313 315 316 317 321 326 331 336 342 347 351 356 358 357 354 353 354 354 353 350 350 350 349 348 349 351 353 353 352 350 348 347 346 344
236 237 241 241 236 235 236 239 245 252 261 269 273 277 282 289 299 308 311 311 315 321 327 330 324 309 303 304 302 306 316 324 328 331 332 332 329 323 317 312 312 315 317 320 324 327 332 340 344 347 351 356 358 356 354 354 354 352 350 349 349 349 348 348 349 351 352 353 353 352 350 349 347 345
240 238 238 240 240 240 240 241 246 252 260 265 268 273 278 283 291 298 301 303 307 311 317 325 325 311 302 300 298 300 309 318 324 329 334 336 331 323 319 314 313 317 321 323 326 330 336 342 345 346 351 355 356 355 354 353 352 349 348 348 348 348 348 349 350 351 352 354 355 353 351 350 348 346
244 243 241 240 241 244 244 245 248 253 258 261 263 267 271 277 284 290 294 296 301 304 308 316 320 315 307 303 298 298 304 314 321 326 332 338 337 328 322 315 311 316 321 324 329 334 339 342 343 345 350 354 355 354 353 351 349 347 347 347 347 348 349 350 351 351 352 355 355 354 353 352 351 349
248 246 244 242 241 244 246 247 248 251 255 258 260 263 266 273 280 286 289 291 294 297 301 307 312 313 310 306 301 297 298 308 318 322 326 335 340 335 328 318 313 318 322 324 330 336 340 342 344 345 349 352 353 352 351 349 347 346 347 347 348 349 350 350 351 351 353 356 356 355 355 355 355 353
254 250 247 243 240 242 244 245 247 249 253 256 258 261 265 271 277 280 282 285 288 290 294 299 303 307 307 304 300 297 296 302 310 316 320 328 336 338 334 322 315 319 323 325 329 336 339 341 344 345 348 350 351 351 349 347 346 346 347 348 350 351 351 351 350 351 353 356 356 357 359 359 359 359
255 254 252 248 243 242 243 244 246 248 251 254 256 260 263 267 271 274 277 280 283 285 289 293 296 300 301 299 297 294 293 297 304 310 316 322 329 334 333 323 314 316 321 323 327 333 337 338 341 343 345 347 349 349 348 346 345 345 346 349 351 351 351 351 350 351 354 357 358 360 2 3 2 4
253 253 253 252 248 245 244 245 246 248 249 252 255 258 261 263 265 268 272 276 278 281 284 287 291 294 295 294 293 292 289 290 295 303 311 318 325 331 331 326 318 314 317 320 323 329 334 337 338 339 340 344 347 347 346 346 344 344 345 349 351 350 351 351 351 353 355 358 360 1 4 6 6 9
251 249 250 252 251 248 246 246 247 249 249 251 254 256 258 260 262 265 268 271 273 276 279 282 285 289 290 290 291 290 286 284 289 297 304 313 321 327 330 329 325 320 319 321 322 326 332 336 337 336 336 340 344 345 345 345 343 343 345 349 350 349 349 351 352 354 357 359 1 3 6 9 10 13
250 247 247 249 249 248 247 247 248 248 249 250 252 255 257 258 260 263 265 267 269 272 274 278 281 283 285 287 290 289 282 278 285 294 301 308 315 320 324 325 325 324 322 320 321 324 329 334 335 334 333 337 341 343 343 342 341 342 345 349 350 349 349 351 353 355 358 360 2 5 7 10 12 15
250 247 246 246 248 248 246 246 247 248 248 250 251 254 256 257 259 261 263 265 268 271 273 275 277 278 280 284 288 288 281 276 281 290 297 304 311 316 319 320 320 320 319 317 316 318 323 328 331 331 330 333 338 341 340 339 339 342 346 349 349 348 349 352 356 357 358 0 3 6 9 10 12 15
250 248 246 246 247 247 246 246 246 247 249 250 251 252 253 255 257 258 260 263 266 269 272 273 274 275 277 281 284 284 280 278 281 285 288 295 304 309 312 315 314 314 316 314 310 311 317 323 327 327 327 329 334 338 336 334 336 340 345 348 348 347 349 354 358 359 359 0 2 6 10 11 12 14
250 249 247 247 247 247 247 246 246 247 247 249 250 251 252 253 254 256 257 261 265 269 272 274 273 274 276 279 280 280 279 278 279 281 282 286 293 299 304 308 308 308 312 312 307 306 311 318 320 321 323 325 329 333 333 330 333 338 343 347 347 346 349 355 359 1 0 0 2 5 9 12 13 14
250 249 248 248 248 248 248 247 246 246 247 248 249 250 251 252 253 254 256 259 264 268 271 272 273 274 276 277 278 277 276 277 281 284 284 285 289 294 300 304 304 303 307 310 306 301 304 311 315 316 319 321 324 329 330 327 329 336 342 345 345 345 349 356 1 3 2 1 2 3 7 11 13 14
248 248 248 248 248 249 248 247 246 247 247 248 249 250 251 253 253 254 256 258 262 265 268 269 272 274 274 274 274 273 273 275 280 284 285 285 287 291 296 299 298 298 300 303 302 296 298 305 309 311 315 317 320 325 327 325 327 334 339 341 341 343 349 356 1 3 3 2 3 4 6 9 11 12
247 247 247 247 248 249 249 247 246 246 247 248 249 250 252 254 255 255 255 258 261 264 265 267 270 273 273 272 271 270 270 273 276 279 280 281 283 287 292 294 294 292 293 297 298 292 291 297 302 305 309 311 315 321 322 322 325 330 334 336 338 342 347 355 0 2 2 2 5 6 6 7 9 11
246 246 246 246 247 248 249 248 247 246 248 248 249 250 252 254 257 257 256 258 260 262 262 264 266 269 270 271 270 269 269 270 272 274 274 275 279 284 288 289 287 288 290 294 293 286 283 289 295 298 301 304 309 315 317 318 322 326 329 332 336 339 345 353 358 359 0 2 6 8 8 8 9 9
246 246 246 246 246 246 247 247 246 246 247 248 249 251 252 254 256 257 257 258 259 259 260 261 263 264 266 268 268 268 267 268 270 271 270 272 276 279 280 280 281 283 285 287 288 283 277 283 289 290 294 298 303 309 312 312 317 321 324 328 332 336 343 350 353 355 358 1 6 9 10 10 10 9
245 246 246 246 246 246 245 245 244 244 245 247 249 250 252 253 255 256 257 258 258 258 259 260 261 262 264 265 266 267 267 266 266 267 268 270 272 272 272 274 278 280 276 279 285 281 274 276 281 285 292 296 296 301 305 307 311 315 320 325 329 333 340 345 348 351 353 358 3 7 9 10 9 9
244 245 245 245 245 246 246 244 243 242 243 245 248 249 251 252 254 255 256 258 260 260 259 260 261 261 262 263 264 264 263 262 262 263 264 264 263 265 269 273 276 276 274 280 285 278 271 273 276 281 290 292 290 295 300 301 304 309 314 319 324 330 337 340 342 346 349 352 356 360 3 7 8 10
243 244 245 245 245 245 246 245 244 243 242 243 246 248 249 251 254 257 258 259 261 262 262 262 262 261 261 261 261 260 259 257 257 257 258 257 257 262 268 272 273 270 271 279 283 272 264 267 272 279 284 279 276 287 294 293 295 300 307 312 317 324 332 335 338 342 345 347 350 353 357 1 5 10
242 243 244 245 245 245 245 245 245 244 243 243 245 246 248 251 254 257 259 261 261 262 263 264 263 262 261 260 260 259 257 255 253 253 253 255 257 262 267 272 274 272 273 279 278 264 257 260 267 275 278 270 266 277 284 283 284 289 296 303 310 317 325 331 336 340 344 347 351 354 355 357 360 5
240 241 243 244 244 244 245 245 246 246 245 244 244 246 249 252 254 257 259 261 261 262 263 264 263 262 261 260 260 259 258 256 254 253 254 256 260 264 268 270 271 271 274 277 272 259 254 257 263 270 271 265 263 270 275 275 275 279 285 294 303 310 317 325 333 339 345 351 354 355 357 359 1 4
240 241 242 243 242 242 243 244 245 247 247 247 247 248 250 253 255 257 258 257 256 258 260 261 261 260 259 261 261 260 259 259 259 259 260 261 263 266 268 269 268 267 267 266 261 256 255 258 264 267 263 254 256 263 264 264 266 270 277 286 296 303 310 319 328 336 344 349 351 353 357 1 4 6
242 242 243 243 242 241 241 243 245 246 247 248 248 248 249 251 253 254 253 253 253 254 256 258 259 259 259 261 262 264 264 265 266 267 266 264 264 264 266 267 265 258 251 251 254 255 256 259 264 264 254 246 251 256 254 253 258 263 269 277 285 293 302 312 323 333 340 345 348 351 356 1 2 5
243 244 244 244 243 241 240 242 243 244 244 244 245 245 245 245 248 250 251 252 253 254 255 257 259 261 263 264 266 268 270 271 271 269 267 266 264 264 264 264 260 252 246 248 254 256 257 260 263 258 247 244 248 248 245 245 250 255 260 264 272 281 291 304 317 327 335 341 345 349 353 356 358 1
246 246 246 245 244 242 240 241 242 242 242 242 242 242 242 242 244 246 249 250 252 253 256 259 261 264 267 269 270 270 271 271 270 270 271 269 266 264 263 261 259 254 251 251 253 255 256 257 256 249 243 244 245 241 239 240 241 245 252 256 262 272 282 295 309 320 328 335 341 347 350 351 354 357
246 246 244 243 243 242 241 240 241 241 241 240 238 238 239 239 241 244 247 250 252 253 254 257 260 264 266 268 269 271 272 273 274 276 275 272 267 264 261 260 259 257 255 255 255 255 255 252 247 242 241 243 243 237 233 233 235 240 247 251 254 260 271 286 301 312 321 329 336 342 345 346 349 353
247 247 245 243 242 242 241 240 240 240 240 240 238 238 239 240 242 243 246 249 250 251 251 253 257 262 265 267 269 271 273 274 275 276 275 272 268 263 261 261 259 256 254 254 254 254 253 246 240 238 238 240 240 236 231 229 233 238 244 250 253 254 261 276 289 299 310 323 330 335 339 342 345 347
251 249 246 243 243 243 242 241 240 241 242 242 241 240 240 242 243 244 245 246 248 249 250 252 256 260 264 266 268 268 270 271 273 274 274 271 267 263 261 260 257 254 253 253 252 252 250 242 235 234 235 234 232 230 230 232 236 240 244 247 252 254 257 267 279 289 299 310 319 323 328 333 337 341
254 251 247 245 244 245 245 244 242 242 244 244 243 241 242 243 244 245 245 246 247 249 251 253 256 259 263 265 266 265 266 267 267 267 268 266 263 261 261 260 257 253 252 251 250 251 248 240 234 232 231 230 228 228 231 237 239 240 243 246 250 252 255 264 275 283 291 298 304 310 317 321 326 331
254 253 251 249 248 248 248 248 246 245 246 247 245 243 244 244 245 246 247 247 248 250 253 254 256 258 261 263 263 262 262 264 265 264 263 261 259 257 258 260 259 255 252 251 251 250 245 238 233 229 226 226 227 228 234 240 239 239 243 246 247 249 251 258 270 279 285 290 293 298 305 307 310 316
253 252 252 252 252 252 252 252 251 249 248 249 248 245 245 246 246 246 247 248 250 252 255 256 256 257 259 261 261 260 261 265 268 267 265 264 264 261 257 257 256 254 255 256 255 250 243 235 231 229 225 223 224 229 238 243 240 237 241 244 245 246 248 253 263 273 281 284 286 290 295 295 293 299
255 255 255 255 256 256 256 256 256 254 252 251 250 248 246 247 248 248 248 249 251 252 253 254 254 254 255 257 257 259 261 264 267 268 266 265 266 266 263 261 259 258 257 257 255 252 246 235 228 227 227 227 227 230 239 246 244 237 237 242 244 246 248 252 261 270 276 280 283 286 291 293 290 291
258 258 258 258 258 259 259 258 258 257 254 252 251 250 248 247 248 250 250 248 249 250 251 251 251 251 252 253 256 259 263 265 266 267 265 263 263 263 263 262 262 263 262 258 254 252 247 237 229 227 229 229 228 231 237 246 249 246 241 241 244 246 249 256 265 272 276 279 284 287 289 291 291 291
260 260 260 260 259 259 260 260 259 257 256 254 251 250 249 248 247 249 250 249 249 251 249 248 249 252 253 254 258 264 267 267 267 266 264 262 261 260 259 257 258 263 264 258 252 247 242 234 229 231 233 231 231 236 237 237 244 249 245 241 242 246 253 261 267 272 275 279 284 289 290 291 292 293
262 261 260 260 260 260 260 259 258 256 255 255 253 251 251 249 248 248 250 250 250 251 249 248 251 256 257 257 260 264 268 269 269 267 265 263 260 258 255 253 256 262 259 251 248 247 241 231 228 233 237 236 238 243 241 238 243 247 243 241 246 251 255 262 268 273 277 280 284 288 290 291 294 296
257 257 258 258 260 261 261 259 257 255 253 254 254 253 252 251 250 250 252 253 252 252 251 250 251 255 257 259 261 263 264 265 265 264 264 263 260 257 253 251 257 262 257 248 248 248 240 232 230 233 234 234 236 241 243 244 247 246 242 244 251 254 257 264 272 277 280 282 283 285 288 290 293 294
256 256 257 257 258 260 261 259 257 254 252 252 253 254 255 255 255 255 256 257 257 255 254 253 252 253 256 259 260 260 261 261 260 259 259 259 258 253 248 248 255 259 252 247 247 244 237 232 233 230 225 225 229 234 238 240 240 239 240 247 254 256 260 269 277 280 280 282 283 284 286 290 292 293
260 257 257 257 257 259 259 258 255 252 251 251 252 254 257 259 259 258 258 258 257 257 257 257 256 255 255 256 257 257 258 257 255 252 251 253 253 248 244 246 251 249 243 242 245 242 234 229 229 225 219 219 223 228 232 236 238 239 241 247 255 262 266 272 278 281 281 283 283 283 284 284 285 286
262 260 259 258 257 257 257 256 254 251 249 249 249 252 255 257 258 258 258 258 258 259 260 261 260 260 258 256 255 255 255 253 249 245 244 247 249 246 243 242 241 240 239 238 237 234 229 225 223 220 217 218 222 227 230 235 240 241 241 246 256 265 271 274 277 281 283 284 284 283 283 282 283 282
264 264 264 262 260 259 258 258 256 253 251 248 247 247 250 251 253 255 257 258 259 259 260 260 260 262 261 257 255 255 253 247 241 237 236 238 242 245 244 239 233 235 239 237 234 235 236 232 225 220 217 220 226 230 233 237 239 238 242 250 258 264 270 274 277 281 283 284 285 285 283 282 281 281